This is the latest recevied weather packets stored in our database for station/object KC3BHK-2. If no packets are shown the sender has not sent any weather packets the latest 10 day(s).
| Time | Temp. | Humidity | Pressure | Rain* | Wind** | Luminosity | Snow |
|---|---|---|---|---|---|---|---|
| 1778064396 | 17.22° C | - | - | 0 mm | 1.34 m/s, 145° | - | - |
| 1778064091 | 17.78° C | - | - | 0 mm | 1.79 m/s, 153° | - | - |
| 1778063786 | 17.78° C | - | - | 0 mm | 2.24 m/s, 184° | - | - |
| 1778063481 | 17.22° C | - | - | 0 mm | 1.79 m/s, 174° | - | - |
| 1778063176 | 17.78° C | - | - | 0 mm | 2.68 m/s, 181° | - | - |
| 1778062872 | 16.67° C | - | - | 0 mm | 3.13 m/s, 165° | - | - |
| 1778062564 | 16.67° C | - | - | 0 mm | 4.47 m/s, 148° | - | - |
| 1778062259 | 17.22° C | - | - | 0 mm | 2.68 m/s, 173° | - | - |
| 1778061954 | 17.22° C | - | - | 0 mm | 2.68 m/s, 205° | - | - |
| 1778061649 | 17.78° C | - | - | 0 mm | 4.47 m/s, 160° | - | - |
| 1778061345 | 18.33° C | - | - | 0 mm | 4.02 m/s, 212° | - | - |
| 1778061040 | 17.22° C | - | - | 0 mm | 4.02 m/s, 170° | - | - |
| 1778060732 | 18.33° C | - | - | 0 mm | 4.02 m/s, 176° | - | - |
| 1778060427 | 17.78° C | - | - | 0 mm | 4.02 m/s, 162° | - | - |
| 1778060123 | 18.89° C | - | - | 0 mm | 4.02 m/s, 173° | - | - |
| 1778059818 | 19.44° C | - | - | 0 mm | 2.68 m/s, 210° | - | - |
| 1778059513 | 18.89° C | - | - | 0 mm | 4.92 m/s, 153° | - | - |
| 1778059208 | 18.89° C | - | - | 0 mm | 4.92 m/s, 165° | - | - |
| 1778058901 | 19.44° C | - | - | 0 mm | 4.47 m/s, 190° | - | - |
| 1778058596 | 19.44° C | - | - | 0 mm | 4.47 m/s, 122° | - | - |
| 1778058291 | 19.44° C | - | - | 0 mm | 4.47 m/s, 166° | - | - |
| 1778057987 | 18.89° C | - | - | 0 mm | 3.13 m/s, 162° | - | - |
| 1778057682 | 19.44° C | - | - | 0 mm | 4.02 m/s, 173° | - | - |
| 1778057376 | 20° C | - | - | 0 mm | 4.47 m/s, 169° | - | - |
| 1778057069 | 20° C | - | - | 0 mm | 2.68 m/s, 142° | - | - |
* Rain latest hour (hover to see other rain measurements)
** Current wind speed in m/s (hover to see current wind gust speed)